Погода в Авдотьино

Россия / Московская область     55°55′23″N   38°14′04″E
темп.,
°C
ветер,
м/с
пор.,
м/с
влажн.,
%
обл.,
%
осадки,
мм/ч
давл.,
гПа
погр.,
м
9 мая, вс
вс900:00+8ссз2698100 4.3 1001247
03:00+7ссз51095100 4.9 1002698
06:00+4сз61396100 0.9 1005696
09:00+2сз61497100 4.3 1009712
12:00+5сз61189100 0.8 1011992
15:00+10ссз61166100 1.1 10131910
18:00+10ссз5125884 0.1 10161808
21:00+5сз347731 0.1 101950
10 мая, пн
пн1000:00+4сз311822 0.0 1022231
03:00+2ссз39860 0.0 1025196
06:00+3ссз28760 0.0 1027207
09:00+9ссв34515 0.0 1028766
12:00+12ссв24402 0.0 10291486
15:00+14ссв23375 0.0 10281564
18:00+13св24500 0.0 1029579
21:00+7всв22750 0.0 103014
11 мая, вт
вт1100:00+5св227787 0.0 103119
03:00+4св23795 0.0 103142
06:00+6св267517 0.0 1032154
09:00+12всв475159 0.0 1032668
12:00+16в464089 0.0 10311108
15:00+17в4541100 0.0 10291200
18:00+16всв3755100 0.0 1029638
21:00+10всв377545 0.0 1029108
12 мая, ср
ср1200:00+8всв38790 0.0 1029135
03:00+7всв38820 0.0 1029153
06:00+9всв310807 0.0 1028263
09:00+15всв510644 0.0 1026507
12:00+20вюв6105686 0.0 10261455
15:00+17вюв4107395 0.0 1025669
18:00+17вюв3107494 0.0 1025772
21:00+14всв258711 0.0 1024116
13 мая, чт
чт1300:00+14в31191100 0.0 1024297
03:00+14в41289100 0.0 1023483
06:00+13в41494100 2.3 1022490
09:00+17в5128094 2.3 1021770
12:00+22вюв7114847 0.0 10191609
15:00+18юв61073100 0.6 10201107
18:00+16вюв488733 0.4 1019740
21:00+14юв3992100 0.5 1019440